owner,sensor,date,latitude,longitude,vertical_datum,direction_of_sea_water_velocity,sea_water_speed,upward_sea_water_velocity,qcFlag 
TABS,ioos:station:wmo:42046:1,2013-06-01T00:00:00Z,27.8903,-94.0367,2.0,359.9605595,72.2500173,-99999.0,'11111222,11144222,99999999' 
TABS,ioos:station:wmo:42046:1,2013-06-01T00:30:00Z,27.8903,-94.0367,2.0,33.63840376,64.42845412,-99999.0,'11111222,11111222,99999999' 
TABS,ioos:station:wmo:42046:1,2013-06-01T01:00:00Z,27.8903,-94.0367,2.0,121.7624974,30.0151695,-99999.0,'11111222,11111222,99999999' 
TABS,ioos:station:wmo:42046:1,2013-06-01T01:30:00Z,27.8903,-94.0367,2.0,76.91508198,54.19720472,-99999.0,'11111222,11111222,99999999' 
TABS,ioos:station:wmo:42046:1,2013-06-01T02:00:00Z,27.8903,-94.0367,2.0,76.16788935,159.3202376,-99999.0,'11133222,11111222,99999999' 
TABS,ioos:station:wmo:42046:1,2013-06-01T02:30:00Z,27.8903,-94.0367,2.0,72.98901789,230.5885982,-99999.0,'11144222,11111222,99999999' 
TABS,ioos:station:wmo:42046:1,2013-06-01T03:00:00Z,27.8903,-94.0367,2.0,244.2359982,43.80438448,-99999.0,'11111222,11111222,99999999' 
TABS,ioos:station:wmo:42046:1,2013-06-01T03:30:00Z,27.8903,-94.0367,2.0,347.6870963,35.73195349,-99999.0,'11111222,11111222,99999999' 
TABS,ioos:station:wmo:42046:1,2013-06-01T04:00:00Z,27.8903,-94.0367,2.0,308.5630367,16.58723907,-99999.0,'11111222,11111222,99999999' 
TABS,ioos:station:wmo:42046:1,2013-06-01T04:30:00Z,27.8903,-94.0367,2.0,51.02975445,16.42503577,-99999.0,'11111222,11111222,99999999' 
TABS,ioos:station:wmo:42046:1,2013-06-01T05:00:00Z,27.8903,-94.0367,2.0,62.72409287,140.5700537,-99999.0,'11111222,11111222,99999999' 
TABS,ioos:station:wmo:42046:1,2013-06-01T05:30:00Z,27.8903,-94.0367,2.0,70.97359742,133.2496698,-99999.0,'11111222,11111222,99999999' 
TABS,ioos:station:wmo:42046:1,2013-06-01T06:00:00Z,27.8903,-94.0367,2.0,45.14853921,92.80100538,-99999.0,'11111222,11111222,99999999' 
TABS,ioos:station:wmo:42046:1,2013-06-01T06:30:00Z,27.8903,-94.0367,2.0,78.96652024,47.96664258,-99999.0,'11111222,11111222,99999999' 
TABS,ioos:station:wmo:42046:1,2013-06-01T07:00:00Z,27.8903,-94.0367,2.0,59.31620689,78.63989954,-99999.0,'11111222,11111222,99999999' 
TABS,ioos:station:wmo:42046:1,2013-06-01T07:30:00Z,27.8903,-94.0367,2.0,53.78022801,140.5010423,-99999.0,'11111222,11111222,99999999' 
TABS,ioos:station:wmo:42046:1,2013-06-01T08:00:00Z,27.8903,-94.0367,2.0,37.87608157,51.48593691,-99999.0,'11111222,11111222,99999999' 
TABS,ioos:station:wmo:42046:1,2013-06-01T08:30:00Z,27.8903,-94.0367,2.0,357.8196661,14.98084777,-99999.0,'11111222,11111222,99999999' 
TABS,ioos:station:wmo:42046:1,2013-06-01T09:00:00Z,27.8903,-94.0367,2.0,354.9345332,80.18318589,-99999.0,'11111222,11111222,99999999' 
TABS,ioos:station:wmo:42046:1,2013-06-01T09:30:00Z,27.8903,-94.0367,2.0,68.87146069,62.78049458,-99999.0,'11111222,11111222,99999999' 
TABS,ioos:station:wmo:42046:1,2013-06-01T10:00:00Z,27.8903,-94.0367,2.0,101.0667171,60.06699094,-99999.0,'11111222,11111222,99999999' 
TABS,ioos:station:wmo:42046:1,2013-06-01T10:30:00Z,27.8903,-94.0367,2.0,53.16336745,107.066018,-99999.0,'11111222,11111222,99999999' 
TABS,ioos:station:wmo:42046:1,2013-06-01T11:00:00Z,27.8903,-94.0367,2.0,44.04259257,78.28058061,-99999.0,'11111222,11111222,99999999' 
TABS,ioos:station:wmo:42046:1,2013-06-01T11:30:00Z,27.8903,-94.0367,2.0,51.98435379,61.40827957,-99999.0,'11111222,11111222,99999999' 
TABS,ioos:station:wmo:42046:1,2013-06-01T12:00:00Z,27.8903,-94.0367,2.0,76.71600149,101.7936982,-99999.0,'11111222,11111222,99999999' 
TABS,ioos:station:wmo:42046:1,2013-06-01T12:30:00Z,27.8903,-94.0367,2.0,64.66717742,100.4495122,-99999.0,'11111222,11111222,99999999' 
TABS,ioos:station:wmo:42046:1,2013-06-01T13:00:00Z,27.8903,-94.0367,2.0,53.23801191,105.2141863,-99999.0,'11111222,11111222,99999999' 
TABS,ioos:station:wmo:42046:1,2013-06-01T13:30:00Z,27.8903,-94.0367,2.0,44.43439113,46.55110847,-99999.0,'11111222,11111222,99999999' 
TABS,ioos:station:wmo:42046:1,2013-06-01T14:00:00Z,27.8903,-94.0367,2.0,114.1764526,78.01263616,-99999.0,'11111222,11111222,99999999' 
TABS,ioos:station:wmo:42046:1,2013-06-01T14:30:00Z,27.8903,-94.0367,2.0,357.9862484,50.08093549,-99999.0,'11111222,11111222,99999999' 
TABS,ioos:station:wmo:42046:1,2013-06-01T15:00:00Z,27.8903,-94.0367,2.0,87.22175476,42.49995412,-99999.0,'11111222,11111222,99999999' 
TABS,ioos:station:wmo:42046:1,2013-06-01T15:30:00Z,27.8903,-94.0367,2.0,288.6708329,26.92702174,-99999.0,'11111222,11111222,99999999' 
TABS,ioos:station:wmo:42046:1,2013-06-01T16:00:00Z,27.8903,-94.0367,2.0,212.4887961,39.30082187,-99999.0,'11111222,11111222,99999999' 
TABS,ioos:station:wmo:42046:1,2013-06-01T16:30:00Z,27.8903,-94.0367,2.0,273.4356612,77.76974026,-99999.0,'11111222,11111222,99999999' 
TABS,ioos:station:wmo:42046:1,2013-06-01T17:00:00Z,27.8903,-94.0367,2.0,11.83851984,77.406408,-99999.0,'11111222,11111222,99999999' 
TABS,ioos:station:wmo:42046:1,2013-06-01T17:30:00Z,27.8903,-94.0367,2.0,63.67386412,78.31225319,-99999.0,'11111222,11111222,99999999' 
TABS,ioos:station:wmo:42046:1,2013-06-01T18:00:00Z,27.8903,-94.0367,2.0,241.8665018,5.556473702,-99999.0,'11133222,11111222,99999999' 
TABS,ioos:station:wmo:42046:1,2013-06-01T18:30:00Z,27.8903,-94.0367,2.0,266.5871942,91.56234215,-99999.0,'11111222,11111222,99999999' 
TABS,ioos:station:wmo:42046:1,2013-06-01T19:00:00Z,27.8903,-94.0367,2.0,72.36637974,22.61249655,-99999.0,'11111222,11111222,99999999' 
TABS,ioos:station:wmo:42046:1,2013-06-01T19:30:00Z,27.8903,-94.0367,2.0,286.7273364,17.82419143,-99999.0,'11111222,11111222,99999999' 
TABS,ioos:station:wmo:42046:1,2013-06-01T20:00:00Z,27.8903,-94.0367,2.0,289.0289244,31.74464679,-99999.0,'11111222,11111222,99999999' 
TABS,ioos:station:wmo:42046:1,2013-06-01T20:30:00Z,27.8903,-94.0367,2.0,337.0568183,53.66547121,-99999.0,'11111222,11111222,99999999' 
TABS,ioos:station:wmo:42046:1,2013-06-01T21:00:00Z,27.8903,-94.0367,2.0,197.1741799,13.51252012,-99999.0,'11111222,11111222,99999999' 
TABS,ioos:station:wmo:42046:1,2013-06-01T21:30:00Z,27.8903,-94.0367,2.0,136.9419341,24.62145812,-99999.0,'11111222,11111222,99999999' 
TABS,ioos:station:wmo:42046:1,2013-06-01T22:00:00Z,27.8903,-94.0367,2.0,346.5824764,42.01689422,-99999.0,'11111222,11111222,99999999' 
TABS,ioos:station:wmo:42046:1,2013-06-01T22:30:00Z,27.8903,-94.0367,2.0,92.02880164,75.13709936,-99999.0,'11111222,11111222,99999999' 
TABS,ioos:station:wmo:42046:1,2013-06-01T23:00:00Z,27.8903,-94.0367,2.0,60.72159462,91.72796575,-99999.0,'11111222,11111222,99999999' 
TABS,ioos:station:wmo:42046:1,2013-06-01T23:30:00Z,27.8903,-94.0367,2.0,101.4693431,101.4865705,-99999.0,'11111222,11111222,99999999' 
TABS,ioos:station:wmo:42046:1,2013-06-02T00:00:00Z,27.8903,-94.0367,2.0,128.2721627,62.10860246,-99999.0,'11111222,11111222,99999999' 
TABS,ioos:station:wmo:42046:1,2013-06-02T00:30:00Z,27.8903,-94.0367,2.0,357.9682964,12.12762549,-99999.0,'11111222,11111222,99999999' 
TABS,ioos:station:wmo:42046:1,2013-06-02T01:00:00Z,27.8903,-94.0367,2.0,71.91442669,40.97439322,-99999.0,'11111222,11111222,99999999' 
TABS,ioos:station:wmo:42046:1,2013-06-02T01:30:00Z,27.8903,-94.0367,2.0,106.0582201,57.87835951,-99999.0,'11111222,11111222,99999999' 
TABS,ioos:station:wmo:42046:1,2013-06-02T02:00:00Z,27.8903,-94.0367,2.0,5.441684759,23.51597329,-99999.0,'11111222,11111222,99999999' 
TABS,ioos:station:wmo:42046:1,2013-06-02T02:30:00Z,27.8903,-94.0367,2.0,52.0956593,54.61090184,-99999.0,'11111222,11111222,99999999' 
TABS,ioos:station:wmo:42046:1,2013-06-02T03:00:00Z,27.8903,-94.0367,2.0,89.79354627,127.6608288,-99999.0,'11111222,11111222,99999999' 
TABS,ioos:station:wmo:42046:1,2013-06-02T03:30:00Z,27.8903,-94.0367,2.0,108.9089049,73.01000274,-99999.0,'11111222,11111222,99999999' 
TABS,ioos:station:wmo:42046:1,2013-06-02T04:00:00Z,27.8903,-94.0367,2.0,109.4399894,115.5579184,-99999.0,'11111222,11111222,99999999' 
TABS,ioos:station:wmo:42046:1,2013-06-02T04:30:00Z,27.8903,-94.0367,2.0,248.0264903,20.44514857,-99999.0,'11111222,11111222,99999999' 
TABS,ioos:station:wmo:42046:1,2013-06-02T05:00:00Z,27.8903,-94.0367,2.0,247.7393345,19.24422511,-99999.0,'11111222,11111222,99999999' 
TABS,ioos:station:wmo:42046:1,2013-06-02T05:30:00Z,27.8903,-94.0367,2.0,257.2351846,22.94709786,-99999.0,'11111222,11111222,99999999' 
TABS,ioos:station:wmo:42046:1,2013-06-02T06:00:00Z,27.8903,-94.0367,2.0,255.0441852,18.44478246,-99999.0,'11111222,11111222,99999999' 
TABS,ioos:station:wmo:42046:1,2013-06-02T06:30:00Z,27.8903,-94.0367,2.0,274.4813192,18.17555501,-99999.0,'11111222,11111222,99999999' 
TABS,ioos:station:wmo:42046:1,2013-06-02T07:00:00Z,27.8903,-94.0367,2.0,281.2107639,19.18607047,-99999.0,'11111222,11111222,99999999' 
TABS,ioos:station:wmo:42046:1,2013-06-02T07:30:00Z,27.8903,-94.0367,2.0,308.5600128,15.19260675,-99999.0,'11111222,11111222,99999999' 
TABS,ioos:station:wmo:42046:1,2013-06-02T08:00:00Z,27.8903,-94.0367,2.0,305.2029572,14.71022773,-99999.0,'11111222,11111222,99999999' 
TABS,ioos:station:wmo:42046:1,2013-06-02T08:30:00Z,27.8903,-94.0367,2.0,302.4908222,11.39326555,-99999.0,'11111222,11111222,99999999' 
TABS,ioos:station:wmo:42046:1,2013-06-02T09:00:00Z,27.8903,-94.0367,2.0,313.5255503,10.4403544,-99999.0,'11111222,11111222,99999999' 
TABS,ioos:station:wmo:42046:1,2013-06-02T09:30:00Z,27.8903,-94.0367,2.0,311.3097924,15.26981663,-99999.0,'11111222,11111222,99999999' 
TABS,ioos:station:wmo:42046:1,2013-06-02T10:00:00Z,27.8903,-94.0367,2.0,323.8381848,18.13338358,-99999.0,'11111222,11111222,99999999' 
TABS,ioos:station:wmo:42046:1,2013-06-02T10:30:00Z,27.8903,-94.0367,2.0,337.1822301,17.79241411,-99999.0,'11111222,11111222,99999999' 
TABS,ioos:station:wmo:42046:1,2013-06-02T11:00:00Z,27.8903,-94.0367,2.0,352.3784402,16.73787621,-99999.0,'11111222,11111222,99999999' 
TABS,ioos:station:wmo:42046:1,2013-06-02T11:30:00Z,27.8903,-94.0367,2.0,351.4814555,14.17640293,-99999.0,'11111222,11111222,99999999' 
TABS,ioos:station:wmo:42046:1,2013-06-02T12:00:00Z,27.8903,-94.0367,2.0,1.802863173,16.8483382,-99999.0,'11111222,11111222,99999999' 
TABS,ioos:station:wmo:42046:1,2013-06-02T12:30:00Z,27.8903,-94.0367,2.0,25.90757961,15.9755219,-99999.0,'11111222,11111222,99999999' 
TABS,ioos:station:wmo:42046:1,2013-06-02T13:00:00Z,27.8903,-94.0367,2.0,48.60338544,19.68942102,-99999.0,'11111222,11111222,99999999' 
TABS,ioos:station:wmo:42046:1,2013-06-02T13:30:00Z,27.8903,-94.0367,2.0,65.52616374,20.59000971,-99999.0,'11111222,11111222,99999999' 
TABS,ioos:station:wmo:42046:1,2013-06-02T14:00:00Z,27.8903,-94.0367,2.0,71.91101232,19.90373834,-99999.0,'11111222,11111222,99999999' 
TABS,ioos:station:wmo:42046:1,2013-06-02T14:30:00Z,27.8903,-94.0367,2.0,82.91104286,17.74565299,-99999.0,'11111222,11111222,99999999' 
TABS,ioos:station:wmo:42046:1,2013-06-02T15:00:00Z,27.8903,-94.0367,2.0,79.45399065,22.94762733,-99999.0,'11111222,11111222,99999999' 
TABS,ioos:station:wmo:42046:1,2013-06-02T15:30:00Z,27.8903,-94.0367,2.0,79.8588348,23.17201977,-99999.0,'11111222,11111222,99999999' 
TABS,ioos:station:wmo:42046:1,2013-06-02T16:00:00Z,27.8903,-94.0367,2.0,85.65086419,25.7140448,-99999.0,'11111222,11111222,99999999' 
TABS,ioos:station:wmo:42046:1,2013-06-02T16:30:00Z,27.8903,-94.0367,2.0,90.96949139,25.41363807,-99999.0,'11111222,11111222,99999999' 
TABS,ioos:station:wmo:42046:1,2013-06-02T17:00:00Z,27.8903,-94.0367,2.0,103.6765379,28.59066281,-99999.0,'11111222,11111222,99999999' 
TABS,ioos:station:wmo:42046:1,2013-06-02T17:30:00Z,27.8903,-94.0367,2.0,120.3509575,27.90441542,-99999.0,'11111222,11111222,99999999' 
TABS,ioos:station:wmo:42046:1,2013-06-02T18:00:00Z,27.8903,-94.0367,2.0,130.6957362,28.92446197,-99999.0,'11111222,11111222,99999999' 
TABS,ioos:station:wmo:42046:1,2013-06-02T18:30:00Z,27.8903,-94.0367,2.0,127.4856751,31.63182733,-99999.0,'11111222,11111222,99999999' 
TABS,ioos:station:wmo:42046:1,2013-06-02T19:00:00Z,27.8903,-94.0367,2.0,130.3539969,33.43580267,-99999.0,'11111222,11111222,99999999' 
TABS,ioos:station:wmo:42046:1,2013-06-02T19:30:00Z,27.8903,-94.0367,2.0,142.6032481,30.67529625,-99999.0,'11111222,11111222,99999999' 
TABS,ioos:station:wmo:42046:1,2013-06-02T20:00:00Z,27.8903,-94.0367,2.0,150.8168624,38.57665745,-99999.0,'11111222,11111222,99999999' 
TABS,ioos:station:wmo:42046:1,2013-06-02T20:30:00Z,27.8903,-94.0367,2.0,156.6029135,36.41411814,-99999.0,'11111222,11111222,99999999' 
TABS,ioos:station:wmo:42046:1,2013-06-02T21:00:00Z,27.8903,-94.0367,2.0,166.0775178,35.36904013,-99999.0,'11111222,11111222,99999999' 
TABS,ioos:station:wmo:42046:1,2013-06-02T21:30:00Z,27.8903,-94.0367,2.0,168.2201521,34.92553507,-99999.0,'11111222,11111222,99999999' 
TABS,ioos:station:wmo:42046:1,2013-06-02T22:00:00Z,27.8903,-94.0367,2.0,183.5091638,37.90107254,-99999.0,'11111222,11111222,99999999' 
TABS,ioos:station:wmo:42046:1,2013-06-02T22:30:00Z,27.8903,-94.0367,2.0,197.3316934,40.24744091,-99999.0,'11111222,11111222,99999999' 
TABS,ioos:station:wmo:42046:1,2013-06-02T23:00:00Z,27.8903,-94.0367,2.0,196.6053421,41.60515593,-99999.0,'11111222,11111222,99999999' 
TABS,ioos:station:wmo:42046:1,2013-06-02T23:30:00Z,27.8903,-94.0367,2.0,196.2882555,39.68280484,-99999.0,'11111222,11111222,99999999' 
TABS,ioos:station:wmo:42046:1,2013-06-03T00:00:00Z,27.8903,-94.0367,2.0,200.8535519,39.41179773,-99999.0,'11111222,11111222,99999999' 
TABS,ioos:station:wmo:42046:1,2013-06-03T00:30:00Z,27.8903,-94.0367,2.0,206.3522957,41.00082438,-99999.0,'11111222,11111222,99999999' 
TABS,ioos:station:wmo:42046:1,2013-06-03T01:00:00Z,27.8903,-94.0367,2.0,208.7031476,37.87406104,-99999.0,'11111222,11111222,99999999' 
TABS,ioos:station:wmo:42046:1,2013-06-03T01:30:00Z,27.8903,-94.0367,2.0,219.3867883,39.61822813,-99999.0,'11111222,11111222,99999999' 
TABS,ioos:station:wmo:42046:1,2013-06-03T02:00:00Z,27.8903,-94.0367,2.0,219.9907276,37.57774075,-99999.0,'11111222,11111222,99999999' 
TABS,ioos:station:wmo:42046:1,2013-06-03T02:30:00Z,27.8903,-94.0367,2.0,230.1536898,29.04517344,-99999.0,'11111222,11111222,99999999' 
TABS,ioos:station:wmo:42046:1,2013-06-03T03:00:00Z,27.8903,-94.0367,2.0,234.146381,28.0684182,-99999.0,'11111222,11111222,99999999' 
TABS,ioos:station:wmo:42046:1,2013-06-03T03:30:00Z,27.8903,-94.0367,2.0,236.4853074,27.13051419,-99999.0,'11111222,11111222,99999999' 
TABS,ioos:station:wmo:42046:1,2013-06-03T04:00:00Z,27.8903,-94.0367,2.0,243.7399912,27.68738702,-99999.0,'11111222,11111222,99999999' 
TABS,ioos:station:wmo:42046:1,2013-06-03T04:30:00Z,27.8903,-94.0367,2.0,239.5353257,23.80662303,-99999.0,'11111222,11111222,99999999' 
TABS,ioos:station:wmo:42046:1,2013-06-03T05:00:00Z,27.8903,-94.0367,2.0,247.4700629,22.94079772,-99999.0,'11111222,11111222,99999999' 
TABS,ioos:station:wmo:42046:1,2013-06-03T05:30:00Z,27.8903,-94.0367,2.0,264.0614079,17.78543505,-99999.0,'11111222,11111222,99999999' 
TABS,ioos:station:wmo:42046:1,2013-06-03T06:00:00Z,27.8903,-94.0367,2.0,276.7185031,20.25910413,-99999.0,'11111222,11111222,99999999' 
TABS,ioos:station:wmo:42046:1,2013-06-03T06:30:00Z,27.8903,-94.0367,2.0,279.3902801,18.20391441,-99999.0,'11111222,11111222,99999999' 
TABS,ioos:station:wmo:42046:1,2013-06-03T07:00:00Z,27.8903,-94.0367,2.0,291.755522,18.40055706,-99999.0,'11111222,11111222,99999999' 
TABS,ioos:station:wmo:42046:1,2013-06-03T07:30:00Z,27.8903,-94.0367,2.0,305.9706995,14.77782122,-99999.0,'11111222,11111222,99999999' 
TABS,ioos:station:wmo:42046:1,2013-06-03T08:00:00Z,27.8903,-94.0367,2.0,321.2938634,15.35188588,-99999.0,'11111222,11111222,99999999' 
TABS,ioos:station:wmo:42046:1,2013-06-03T08:30:00Z,27.8903,-94.0367,2.0,333.4352214,15.60775448,-99999.0,'11111222,11111222,99999999' 
TABS,ioos:station:wmo:42046:1,2013-06-03T09:00:00Z,27.8903,-94.0367,2.0,342.6166522,19.64737642,-99999.0,'11111222,11111222,99999999' 
TABS,ioos:station:wmo:42046:1,2013-06-03T09:30:00Z,27.8903,-94.0367,2.0,354.0078558,19.82834587,-99999.0,'11111222,11111222,99999999' 
TABS,ioos:station:wmo:42046:1,2013-06-03T10:00:00Z,27.8903,-94.0367,2.0,2.212805328,22.01641433,-99999.0,'11111222,11111222,99999999' 
TABS,ioos:station:wmo:42046:1,2013-06-03T10:30:00Z,27.8903,-94.0367,2.0,11.91177628,23.15867008,-99999.0,'11111222,11111222,99999999' 
TABS,ioos:station:wmo:42046:1,2013-06-03T11:00:00Z,27.8903,-94.0367,2.0,18.28973706,22.43326994,-99999.0,'11111222,11111222,99999999' 
TABS,ioos:station:wmo:42046:1,2013-06-03T11:30:00Z,27.8903,-94.0367,2.0,24.99447566,23.00436698,-99999.0,'11111222,11111222,99999999' 
TABS,ioos:station:wmo:42046:1,2013-06-03T12:00:00Z,27.8903,-94.0367,2.0,32.95871624,22.81113105,-99999.0,'11111222,11111222,99999999' 
TABS,ioos:station:wmo:42046:1,2013-06-03T12:30:00Z,27.8903,-94.0367,2.0,31.5672625,22.31148807,-99999.0,'11111222,11111222,99999999' 
TABS,ioos:station:wmo:42046:1,2013-06-03T13:00:00Z,27.8903,-94.0367,2.0,35.7019937,21.09438314,-99999.0,'11111222,11111222,99999999' 
TABS,ioos:station:wmo:42046:1,2013-06-03T13:30:00Z,27.8903,-94.0367,2.0,38.28268144,24.90556966,-99999.0,'11111222,11111222,99999999' 
TABS,ioos:station:wmo:42046:1,2013-06-03T14:00:00Z,27.8903,-94.0367,2.0,49.07267134,28.77412205,-99999.0,'11111222,11111222,99999999' 
TABS,ioos:station:wmo:42046:1,2013-06-03T14:30:00Z,27.8903,-94.0367,2.0,57.31068183,27.79194488,-99999.0,'11111222,11111222,99999999' 
TABS,ioos:station:wmo:42046:1,2013-06-03T15:00:00Z,27.8903,-94.0367,2.0,68.18141102,24.69933805,-99999.0,'11111222,11111222,99999999' 
TABS,ioos:station:wmo:42046:1,2013-06-03T15:30:00Z,27.8903,-94.0367,2.0,77.99042926,25.37539753,-99999.0,'11111222,11111222,99999999' 
TABS,ioos:station:wmo:42046:1,2013-06-03T16:00:00Z,27.8903,-94.0367,2.0,87.30005823,23.77639376,-99999.0,'11111222,11111222,99999999' 
TABS,ioos:station:wmo:42046:1,2013-06-03T16:30:00Z,27.8903,-94.0367,2.0,91.43266111,25.19787689,-99999.0,'11111222,11111222,99999999' 
TABS,ioos:station:wmo:42046:1,2013-06-03T17:00:00Z,27.8903,-94.0367,2.0,102.9590372,26.57689974,-99999.0,'11111222,11111222,99999999' 
TABS,ioos:station:wmo:42046:1,2013-06-03T17:30:00Z,27.8903,-94.0367,2.0,113.749439,22.12353046,-99999.0,'11111222,11111222,99999999' 
TABS,ioos:station:wmo:42046:1,2013-06-03T18:00:00Z,27.8903,-94.0367,2.0,119.9731673,22.71838242,-99999.0,'11111222,11111222,99999999' 
TABS,ioos:station:wmo:42046:1,2013-06-03T18:30:00Z,27.8903,-94.0367,2.0,135.7175132,24.27687995,-99999.0,'11111222,11111222,99999999' 
TABS,ioos:station:wmo:42046:1,2013-06-03T19:00:00Z,27.8903,-94.0367,2.0,142.9136411,27.01419257,-99999.0,'11111222,11111222,99999999' 
TABS,ioos:station:wmo:42046:1,2013-06-03T19:30:00Z,27.8903,-94.0367,2.0,145.7279354,31.68056186,-99999.0,'11111222,11111222,99999999' 
TABS,ioos:station:wmo:42046:1,2013-06-03T20:00:00Z,27.8903,-94.0367,2.0,146.5989412,28.02935782,-99999.0,'11111222,11111222,99999999' 
TABS,ioos:station:wmo:42046:1,2013-06-03T20:30:00Z,27.8903,-94.0367,2.0,156.6800903,31.0461624,-99999.0,'11111222,11111222,99999999' 
TABS,ioos:station:wmo:42046:1,2013-06-03T21:00:00Z,27.8903,-94.0367,2.0,164.6525779,29.99980833,-99999.0,'11111222,11111222,99999999' 
TABS,ioos:station:wmo:42046:1,2013-06-03T21:30:00Z,27.8903,-94.0367,2.0,165.5016615,33.39339006,-99999.0,'11111222,11111222,99999999' 
TABS,ioos:station:wmo:42046:1,2013-06-03T22:00:00Z,27.8903,-94.0367,2.0,173.5534643,30.99597393,-99999.0,'11111222,11111222,99999999' 
TABS,ioos:station:wmo:42046:1,2013-06-03T22:30:00Z,27.8903,-94.0367,2.0,179.5629602,32.79095302,-99999.0,'11111222,11111222,99999999' 
TABS,ioos:station:wmo:42046:1,2013-06-03T23:00:00Z,27.8903,-94.0367,2.0,183.4463272,32.76926914,-99999.0,'11111222,11111222,99999999' 
TABS,ioos:station:wmo:42046:1,2013-06-03T23:30:00Z,27.8903,-94.0367,2.0,184.1632577,32.5057841,-99999.0,'11111222,11111222,99999999' 
TABS,ioos:station:wmo:42046:1,2013-06-04T00:00:00Z,27.8903,-94.0367,2.0,188.8834975,28.81567976,-99999.0,'11111222,11111222,99999999' 
TABS,ioos:station:wmo:42046:1,2013-06-04T00:30:00Z,27.8903,-94.0367,2.0,191.9992663,26.88750825,-99999.0,'11111222,11111222,99999999' 
TABS,ioos:station:wmo:42046:1,2013-06-04T01:00:00Z,27.8903,-94.0367,2.0,198.2603329,25.97823127,-99999.0,'11111222,11111222,99999999' 
TABS,ioos:station:wmo:42046:1,2013-06-04T01:30:00Z,27.8903,-94.0367,2.0,198.5173295,24.1187168,-99999.0,'11111222,11111222,99999999' 
TABS,ioos:station:wmo:42046:1,2013-06-04T02:00:00Z,27.8903,-94.0367,2.0,204.5898492,24.00726973,-99999.0,'11111222,11111222,99999999' 
TABS,ioos:station:wmo:42046:1,2013-06-04T02:30:00Z,27.8903,-94.0367,2.0,208.0940727,23.12470757,-99999.0,'11111222,11111222,99999999' 
TABS,ioos:station:wmo:42046:1,2013-06-04T03:00:00Z,27.8903,-94.0367,2.0,203.3490279,20.96708373,-99999.0,'11111222,11111222,99999999' 
TABS,ioos:station:wmo:42046:1,2013-06-04T03:30:00Z,27.8903,-94.0367,2.0,217.2434661,18.39039151,-99999.0,'11111222,11111222,99999999' 
TABS,ioos:station:wmo:42046:1,2013-06-04T04:00:00Z,27.8903,-94.0367,2.0,218.8826682,18.84563079,-99999.0,'11111222,11111222,99999999' 
TABS,ioos:station:wmo:42046:1,2013-06-04T04:30:00Z,27.8903,-94.0367,2.0,250.8222228,14.64257491,-99999.0,'11111222,11111222,99999999' 
TABS,ioos:station:wmo:42046:1,2013-06-04T05:00:00Z,27.8903,-94.0367,2.0,234.1122333,18.66274364,-99999.0,'11111222,11111222,99999999' 
TABS,ioos:station:wmo:42046:1,2013-06-04T05:30:00Z,27.8903,-94.0367,2.0,231.3548157,17.9506128,-99999.0,'11111222,11111222,99999999' 
TABS,ioos:station:wmo:42046:1,2013-06-04T06:00:00Z,27.8903,-94.0367,2.0,224.7998166,12.16231064,-99999.0,'11111222,11111222,99999999' 
TABS,ioos:station:wmo:42046:1,2013-06-04T06:30:00Z,27.8903,-94.0367,2.0,255.2351155,13.92994616,-99999.0,'11111222,11111222,99999999' 
TABS,ioos:station:wmo:42046:1,2013-06-04T07:00:00Z,27.8903,-94.0367,2.0,276.7694215,10.18096754,-99999.0,'11111222,11111222,99999999' 
TABS,ioos:station:wmo:42046:1,2013-06-04T07:30:00Z,27.8903,-94.0367,2.0,278.3219677,13.54258469,-99999.0,'11111222,11111222,99999999' 
TABS,ioos:station:wmo:42046:1,2013-06-04T08:00:00Z,27.8903,-94.0367,2.0,301.6050981,13.64356625,-99999.0,'11111222,11111222,99999999' 
TABS,ioos:station:wmo:42046:1,2013-06-04T08:30:00Z,27.8903,-94.0367,2.0,300.8743844,10.95191307,-99999.0,'11111222,11111222,99999999' 
TABS,ioos:station:wmo:42046:1,2013-06-04T09:00:00Z,27.8903,-94.0367,2.0,310.7581328,10.32375901,-99999.0,'11111222,11111222,99999999' 
TABS,ioos:station:wmo:42046:1,2013-06-04T09:30:00Z,27.8903,-94.0367,2.0,331.170362,13.12702937,-99999.0,'11111222,11111222,99999999' 
TABS,ioos:station:wmo:42046:1,2013-06-04T10:00:00Z,27.8903,-94.0367,2.0,348.3656687,17.65269668,-99999.0,'11111222,11111222,99999999' 
TABS,ioos:station:wmo:42046:1,2013-06-04T10:30:00Z,27.8903,-94.0367,2.0,359.3007423,18.0213429,-99999.0,'11111222,11144222,99999999' 
TABS,ioos:station:wmo:42046:1,2013-06-04T11:00:00Z,27.8903,-94.0367,2.0,8.004920597,17.45002292,-99999.0,'11111222,11111222,99999999' 
TABS,ioos:station:wmo:42046:1,2013-06-04T11:30:00Z,27.8903,-94.0367,2.0,27.5481978,23.20038362,-99999.0,'11111222,11111222,99999999' 
TABS,ioos:station:wmo:42046:1,2013-06-04T12:00:00Z,27.8903,-94.0367,2.0,36.91074373,25.3260064,-99999.0,'11111222,11111222,99999999' 
TABS,ioos:station:wmo:42046:1,2013-06-04T12:30:00Z,27.8903,-94.0367,2.0,44.01630418,24.70995346,-99999.0,'11111222,11111222,99999999' 
TABS,ioos:station:wmo:42046:1,2013-06-04T13:00:00Z,27.8903,-94.0367,2.0,49.73956201,26.4442905,-99999.0,'11111222,11111222,99999999' 
TABS,ioos:station:wmo:42046:1,2013-06-04T13:30:00Z,27.8903,-94.0367,2.0,52.55094814,26.90537493,-99999.0,'11111222,11111222,99999999' 
TABS,ioos:station:wmo:42046:1,2013-06-04T14:00:00Z,27.8903,-94.0367,2.0,58.66983938,27.61698209,-99999.0,'11111222,11111222,99999999' 
TABS,ioos:station:wmo:42046:1,2013-06-04T14:30:00Z,27.8903,-94.0367,2.0,62.59750039,26.31238682,-99999.0,'11111222,11111222,99999999' 
TABS,ioos:station:wmo:42046:1,2013-06-04T15:00:00Z,27.8903,-94.0367,2.0,65.6900186,27.61893915,-99999.0,'11111222,11111222,99999999' 
TABS,ioos:station:wmo:42046:1,2013-06-04T15:30:00Z,27.8903,-94.0367,2.0,67.01308865,27.37363878,-99999.0,'11111222,11111222,99999999' 